[[{"header":{"parameterUnit":"m.s-1","parameterCategory":1,"la1":30.2991,"la2":30.254,"lo1":-89.0895,"lo2":-89.0444,"dy":0.0017,"dx":0.0017,"nx":28,"ny":28,"refTime":"2025-08-24T09:00:00:Z","depth":0,"parameterNumber":2,"parameterNumberName":"U-component_of_WINDS"},"data":[0,0,0,0,0,0,0,0,0,0,0,0,0,0,0,0,0,0,0,0,0,0,0,0,0,0,0,0,0,0,0,0,0,0,0,0,0,0,0,0,0,0,0,0,0,0,0,0,0,0,0,0,0,0,0,0,0,0,1.6969,1.6968,0,1.6914,1.6914,1.6913,1.6773,1.677,1.6767,1.6764,1.6711,1.6712,1.6713,0,0,0,0,0,0,0,0,0,0,0,0,0,1.6955,1.6956,1.6969,1.6968,1.6967,1.6915,1.6914,1.6913,1.6773,1.677,1.6766,1.6763,1.671,1.6712,1.6714,0,0,0,0,0,0,0,0,0,0,0,0,0,1.6937,1.6956,1.6969,1.6891,1.6884,1.6915,1.6914,1.6913,1.6774,1.677,1.6765,1.6761,1.671,1.6712,1.6714,1.6816,0,0,1.672,1.6721,0,0,0,0,0,0,0,0,1.6938,1.6938,1.6903,1.6897,1.6888,1.6846,1.6889,1.6881,1.6775,1.6816,1.6764,1.6759,1.6759,1.6757,1.6757,1.6814,1.6812,1.672,1.6722,1.6722,1.6723,0,0,0,0,0,0,0,1.6939,1.6939,1.6947,1.6903,1.6894,1.686,1.6853,1.6887,1.6814,1.6812,1.6802,1.6797,1.6754,1.6755,1.6755,1.6811,1.672,1.6722,1.6723,1.6724,1.6952,1.6956,0,0,0,0,0,0,1.6951,1.6941,1.6949,1.6945,1.6903,1.6864,1.6856,1.6864,1.6813,1.6801,1.6801,1.6791,1.6754,1.6752,1.6752,1.687,1.6722,1.6724,1.6726,1.6947,1.6953,1.6958,0,0,0,0,0,0,1.6952,1.6953,1.6951,1.694,1.6938,1.6869,1.688,1.6865,1.6866,1.6804,1.6791,1.6815,1.675,1.6749,1.6802,1.6866,1.6725,1.6727,1.6941,1.6949,1.6955,1.7106,0,0,0,0,0,0,1.6952,1.6954,1.6992,1.6942,1.6939,1.7001,1.6883,1.6867,1.6869,1.6855,1.6814,1.6803,1.6747,1.68,1.6804,1.6866,1.6729,1.6935,1.6945,1.6953,1.7095,1.7118,1.7137,0,0,0,0,0,1.6952,1.7036,1.6994,1.6996,1.6984,1.7005,1.7003,1.6936,1.6875,1.6913,1.6874,1.6804,1.6859,1.6806,1.681,1.6874,1.6931,1.6942,1.6952,1.7086,1.7113,1.7136,0,0,0,0,0,0,1.7095,1.7028,1.6981,1.7051,1.7035,1.6981,1.7026,1.6967,1.6967,1.6955,1.6872,1.6864,1.6929,1.6906,1.6849,1.6972,1.6884,1.6896,1.6984,1.7009,1.703,1.7034,1.673,0,0,0,0,0,1.7134,1.7156,1.7097,1.7165,1.716,1.7095,1.7102,1.7052,1.7031,1.7024,1.6988,1.6972,1.6986,1.6996,1.7005,1.7092,1.7082,1.7138,1.7159,1.7176,1.7188,1.7234,1.7259,1.6994,1.6993,1.6993,0,0,1.7217,1.7183,1.7202,1.7193,1.7174,1.72,1.709,1.7121,1.714,1.7029,1.7076,1.705,1.7027,1.7098,1.7127,1.7081,1.7259,1.719,1.7205,1.7206,1.7247,1.7273,1.7295,1.7001,1.7,1.6998,0,0,1.7379,1.7356,1.741,1.7395,1.7368,1.7325,1.7339,1.7294,1.7273,1.7319,1.7237,1.7259,1.7283,1.727,1.7267,1.7429,1.7366,1.7435,1.7544,1.7589,1.761,1.7628,1.7687,1.7709,1.7446,1.7447,1.7447,0,1.7485,1.7519,1.7446,1.7484,1.7483,1.7385,1.7441,1.7429,1.7407,1.741,1.7359,1.7389,1.7366,1.7433,1.7473,1.7474,1.7488,1.7438,1.7613,1.763,1.7646,1.7702,1.7724,1.7455,1.7454,1.7453,1.7453,0,1.7651,1.7677,1.7724,1.7706,1.7711,1.7758,1.7694,1.7708,1.7659,1.7622,1.7672,1.7642,1.7643,1.7656,1.7608,1.7717,1.769,1.7628,1.7537,1.7681,1.7732,1.7752,1.7468,1.7464,1.7462,1.746,0,0,1.7899,1.7842,1.7861,1.7852,1.7817,1.7836,1.788,1.7881,1.7896,1.7885,1.792,1.7945,1.7888,1.7885,1.7835,1.7875,1.8007,1.7808,1.7806,1.7846,1.8127,1.8175,1.82,1.7965,1.7969,1.7972,1.813,0,1.8053,1.8123,1.806,1.8143,1.8167,1.8075,1.8113,1.8097,1.8064,1.8081,1.8045,1.8064,1.7986,1.7984,1.802,1.7984,1.8063,1.7971,1.7998,1.8,1.8007,1.8226,1.8276,1.8426,1.8149,1.8152,1.8154,0,1.8241,1.8239,1.8325,1.8286,1.8294,1.8329,1.8327,1.8344,1.8324,1.8298,1.8296,1.8236,1.8277,1.819,1.8247,1.8187,1.8194,1.8179,1.8183,1.8183,1.8086,1.8232,1.8472,1.8495,1.8185,1.8182,1.818,0,1.8415,1.8434,1.8488,1.8483,1.844,1.8467,1.845,1.8426,1.8432,1.8431,1.8435,1.8439,1.8441,1.8447,1.839,1.8331,1.8455,1.8362,1.8435,1.8437,1.8465,1.8464,1.8709,1.8471,1.847,1.847,1.8469,0,1.8593,1.8648,1.8565,1.8599,1.8659,1.8588,1.8651,1.8624,1.8605,1.8632,1.8554,1.8582,1.8505,1.8525,1.8482,1.8537,1.8538,1.8519,1.8507,1.8526,1.8529,1.8529,1.8518,1.8476,1.8474,1.8473,1.8472,0,1.8796,1.8743,1.8795,1.8751,1.8741,1.8788,1.875,1.878,1.8743,1.878,1.8784,1.8727,1.8747,1.8691,1.8703,1.8674,1.8754,1.8724,1.876,1.8751,1.8828,1.8822,1.9082,1.9113,1.8855,1.8858,1.886,0,1.8913,1.8954,1.8914,1.8927,1.8915,1.8936,1.8943,1.8875,1.8885,1.8868,1.8901,1.8914,1.8922,1.8959,1.8919,1.8928,1.8899,1.899,1.8899,1.8918,1.8901,1.8899,1.8904,1.9008,1.9011,1.9014,1.9016,0,1.9126,1.9098,1.911,1.9114,1.9124,1.9123,1.9117,1.9133,1.9061,1.9077,1.9096,1.9102,1.9115,1.913,1.9131,1.9115,1.9055,1.9045,1.9062,1.9082,1.9102,1.9093,1.8811,1.9039,1.9037,1.9035,1.9034,1.9033,1.9289,1.9322,1.9301,1.9317,1.9306,1.9303,1.933,1.9297,1.9312,1.9317,1.9277,1.9307,1.9289,1.9284,1.9274,1.9297,1.9255,1.928,1.9287,1.9294,1.9307,1.9099,1.9297,1.9296,1.9295,1.9295,1.9294,0,1.9499,1.9481,1.9497,1.9492,1.9506,1.9448,1.944,1.9455,1.9482,1.947,1.948,1.9504,1.9519,1.9482,1.9492,1.9518,1.9491,1.9523,1.952,1.9518,1.9343,1.9327,1.9545,1.9545,1.9545,1.9545,1.9545,1.9545,1.9609,1.9663,1.9634,1.9682,1.9663,1.9691,1.9692,1.9689,1.968,1.9711,1.9723,1.9699,1.9678,1.9686,1.9698,1.9687,1.9695,1.9737,1.9716,1.9554,1.953,1.9506,1.9491,1.9739,1.9739,1.9888,1.989,1.9891]},{"header":{"parameterUnit":"m.s-1","parameterCategory":1,"la1":30.2991,"la2":30.254,"lo1":-89.0895,"lo2":-89.0444,"dy":0.0017,"dx":0.0017,"nx":28,"ny":28,"refTime":"2025-08-24T09:00:00:Z","depth":0,"parameterNumber":3,"parameterNumberName":"V-component_of_WINDS"},"data":[0,0,0,0,0,0,0,0,0,0,0,0,0,0,0,0,0,0,0,0,0,0,0,0,0,0,0,0,0,0,0,0,0,0,0,0,0,0,0,0,0,0,0,0,0,0,0,0,0,0,0,0,0,0,0,0,0,0,-1.8648,-1.8651,0,-1.8854,-1.8857,-1.8859,-1.8958,-1.8958,-1.8958,-1.8957,-1.9169,-1.9175,-1.918,0,0,0,0,0,0,0,0,0,0,0,0,0,-1.834,-1.8345,-1.8648,-1.8651,-1.8653,-1.8854,-1.8857,-1.886,-1.8958,-1.8958,-1.8958,-1.8957,-1.9167,-1.9174,-1.9181,0,0,0,0,0,0,0,0,0,0,0,0,0,-1.8503,-1.8347,-1.8648,-1.8726,-1.8736,-1.8854,-1.8857,-1.8861,-1.8958,-1.8958,-1.8958,-1.8957,-1.9165,-1.9173,-1.9182,-1.9237,0,0,-1.9208,-1.9212,0,0,0,0,0,0,0,0,-1.8494,-1.8514,-1.8712,-1.8721,-1.8732,-1.888,-1.8826,-1.8987,-1.8958,-1.8873,-1.8957,-1.8957,-1.9073,-1.9089,-1.9128,-1.9247,-1.9256,-1.9209,-1.9214,-1.9218,-1.922,0,0,0,0,0,0,0,-1.8482,-1.8506,-1.873,-1.8715,-1.8727,-1.8752,-1.8775,-1.8857,-1.8971,-1.8881,-1.8888,-1.8911,-1.9078,-1.912,-1.9134,-1.9259,-1.9208,-1.9216,-1.9221,-1.9225,-1.9435,-1.9436,0,0,0,0,0,0,-1.8458,-1.8496,-1.8723,-1.8736,-1.861,-1.8757,-1.8783,-1.8833,-1.8971,-1.8992,-1.8911,-1.8915,-1.9105,-1.9124,-1.9142,-1.9217,-1.9217,-1.9225,-1.923,-1.9435,-1.9435,-1.9436,0,0,0,0,0,0,-1.8451,-1.8477,-1.8715,-1.8618,-1.865,-1.8763,-1.8818,-1.8837,-1.8878,-1.8994,-1.9015,-1.8932,-1.9106,-1.913,-1.9213,-1.9225,-1.9229,-1.9237,-1.9434,-1.9435,-1.9435,-1.9366,0,0,0,0,0,0,-1.8442,-1.8474,-1.8496,-1.8618,-1.8655,-1.8782,-1.8819,-1.8841,-1.8893,-1.89,-1.9019,-1.9039,-1.9107,-1.92,-1.9221,-1.9237,-1.9244,-1.9434,-1.9434,-1.9435,-1.9367,-1.9364,-1.9361,0,0,0,0,0,-1.843,-1.8468,-1.8497,-1.8524,-1.8685,-1.8783,-1.8804,-1.8882,-1.8893,-1.8917,-1.8991,-1.9035,-1.922,-1.9207,-1.9233,-1.9251,-1.9433,-1.9434,-1.9435,-1.9369,-1.9365,-1.9361,0,0,0,0,0,0,-1.8345,-1.8486,-1.8519,-1.8597,-1.8677,-1.8799,-1.8831,-1.8875,-1.8953,-1.8957,-1.905,-1.9076,-1.9151,-1.921,-1.9193,-1.9313,-1.9331,-1.9337,-1.9272,-1.9269,-1.9265,-1.925,-1.9251,0,0,0,0,0,-1.8335,-1.8403,-1.8522,-1.858,-1.8618,-1.8717,-1.8763,-1.8816,-1.8903,-1.8937,-1.9018,-1.91,-1.9178,-1.9226,-1.9303,-1.9376,-1.9404,-1.9402,-1.9398,-1.9395,-1.9399,-1.9443,-1.9444,-1.9439,-1.9439,-1.9439,0,0,-1.8316,-1.8401,-1.8438,-1.8565,-1.8633,-1.8701,-1.8745,-1.8815,-1.8867,-1.8948,-1.9032,-1.9094,-1.9192,-1.9271,-1.9309,-1.9321,-1.9407,-1.9396,-1.9393,-1.9399,-1.9444,-1.9444,-1.9445,-1.944,-1.944,-1.944,0,0,-1.8316,-1.8386,-1.8443,-1.851,-1.8613,-1.8679,-1.8692,-1.8808,-1.8852,-1.8938,-1.9,-1.9063,-1.9193,-1.9262,-1.9313,-1.9339,-1.9383,-1.9361,-1.9345,-1.9386,-1.9386,-1.9387,-1.9397,-1.94,-1.9365,-1.9365,-1.9365,0,-1.8279,-1.8384,-1.8466,-1.8533,-1.8587,-1.8663,-1.8721,-1.8783,-1.8906,-1.8942,-1.8953,-1.9119,-1.9191,-1.9287,-1.9293,-1.9332,-1.9351,-1.9348,-1.938,-1.9381,-1.9383,-1.9394,-1.9397,-1.9362,-1.9362,-1.9363,-1.9363,0,-1.8334,-1.8406,-1.8439,-1.8555,-1.8613,-1.8675,-1.8767,-1.8816,-1.8864,-1.8928,-1.9015,-1.9104,-1.92,-1.9227,-1.9274,-1.933,-1.9334,-1.9362,-1.9382,-1.9379,-1.9391,-1.9395,-1.9357,-1.9358,-1.9359,-1.936,0,0,-1.8285,-1.8447,-1.8458,-1.8512,-1.8631,-1.8689,-1.8754,-1.8849,-1.889,-1.8972,-1.903,-1.9138,-1.9165,-1.9223,-1.9279,-1.9315,-1.9331,-1.9339,-1.9343,-1.9335,-1.9399,-1.9378,-1.9381,-1.9361,-1.9362,-1.9363,-1.9391,0,-1.8302,-1.8423,-1.8499,-1.859,-1.8658,-1.8732,-1.8789,-1.8869,-1.8931,-1.8998,-1.9067,-1.9143,-1.9171,-1.9207,-1.9246,-1.9321,-1.9345,-1.932,-1.9416,-1.9419,-1.939,-1.9387,-1.9365,-1.9387,-1.9396,-1.9397,-1.9397,0,-1.8338,-1.8418,-1.8516,-1.8628,-1.866,-1.871,-1.8803,-1.8866,-1.8958,-1.9001,-1.9066,-1.9123,-1.9196,-1.921,-1.9312,-1.9293,-1.9337,-1.9379,-1.9382,-1.9395,-1.9408,-1.94,-1.9396,-1.9399,-1.9405,-1.9404,-1.9404,0,-1.8294,-1.8426,-1.8502,-1.8546,-1.8679,-1.8713,-1.877,-1.8862,-1.8914,-1.8996,-1.9031,-1.9119,-1.9168,-1.9236,-1.9315,-1.9318,-1.941,-1.943,-1.9448,-1.9446,-1.9465,-1.9463,-1.9468,-1.9492,-1.9492,-1.9491,-1.9491,0,-1.8305,-1.8362,-1.8484,-1.8531,-1.8597,-1.8684,-1.8747,-1.881,-1.8891,-1.8952,-1.9021,-1.9076,-1.9178,-1.9246,-1.9308,-1.9384,-1.9405,-1.9442,-1.9459,-1.9437,-1.9432,-1.9467,-1.9468,-1.9492,-1.9492,-1.9492,-1.9492,0,-1.8267,-1.8351,-1.8438,-1.8557,-1.8588,-1.8632,-1.8734,-1.8782,-1.8848,-1.8924,-1.8947,-1.905,-1.9134,-1.922,-1.9333,-1.9375,-1.9449,-1.9471,-1.9418,-1.9427,-1.9441,-1.9438,-1.947,-1.9479,-1.9494,-1.9494,-1.9494,0,-1.8269,-1.8314,-1.8438,-1.8483,-1.8539,-1.8611,-1.8665,-1.8752,-1.8805,-1.8914,-1.8949,-1.9038,-1.9114,-1.9245,-1.933,-1.9418,-1.9442,-1.9447,-1.9456,-1.9433,-1.9444,-1.944,-1.9445,-1.9444,-1.9443,-1.9443,-1.9443,0,-1.8263,-1.8303,-1.8377,-1.8467,-1.8529,-1.8604,-1.8681,-1.8714,-1.8817,-1.8874,-1.896,-1.9019,-1.9135,-1.9222,-1.932,-1.938,-1.9428,-1.9439,-1.9448,-1.9427,-1.9394,-1.9413,-1.941,-1.9438,-1.9439,-1.9439,-1.9439,-1.9439,-1.8246,-1.829,-1.8384,-1.8465,-1.8533,-1.8603,-1.8655,-1.8727,-1.8801,-1.8902,-1.8949,-1.9036,-1.9128,-1.9264,-1.9322,-1.9392,-1.9406,-1.9418,-1.9422,-1.9424,-1.9419,-1.9382,-1.941,-1.941,-1.9411,-1.9411,-1.9411,0,-1.8244,-1.8309,-1.8382,-1.8488,-1.8552,-1.8593,-1.868,-1.8731,-1.8807,-1.8888,-1.8962,-1.9061,-1.9147,-1.9239,-1.9331,-1.9369,-1.9394,-1.939,-1.9388,-1.9401,-1.9401,-1.9385,-1.9368,-1.9368,-1.9368,-1.9368,-1.9368,-1.9368,-1.8251,-1.8328,-1.8379,-1.849,-1.8555,-1.864,-1.8687,-1.8753,-1.8819,-1.8927,-1.8998,-1.9058,-1.9144,-1.9242,-1.9323,-1.9348,-1.9379,-1.9369,-1.94,-1.9398,-1.9401,-1.9404,-1.9389,-1.9374,-1.9374,-1.9395,-1.9395,-1.9395]}]]